User: anonymous   Login
Location: Unspecified
(0.0000°N, 0.0000°E)
Time: 17:12:38
(UTC+02:00)
Language:

ARIANE 44L R/B - Orbit

View from above orbital plane
View from above orbital plane
View from above satellite
View from above satellite

Ground track
Ground track

The orbit data is extracted from the following two-line orbital elements,

1 26901U 01039B   16181.51861282  .00003659  00000-0  77813-3 0  9993
2 26901   7.4032 310.8417 6915547 350.9649   1.0840  2.75638804133781
Epoch (UTC): 29 June 2016 12:26:48
Eccentricity: 0.6915547
inclination: 7.4032°
perigee height: 249 km
apogee height: 29968 km
right ascension of ascending node: 310.8417°
argument of perigee: 350.9649°
revolutions per day: 2.75638804
mean anomaly at epoch: 1.0840°
orbit number at epoch: 13378

The dashed part of the orbit path shows where the satellite is in the earth's shadow,  

DLR